Location: Chuathbaluk
(61.5726°N, 159.2454°W)
Time: 11:16:25
(UTC+00:00)

N. Korean satellite - Pass Details

Date: 27 October 2020
Orbit: 453 x 503 km, 97.2° (Epoch: 04 December)

Event Time Altitude Azimuth Distance (km) Brightness Sun altitude
Rises 16:19:05 0° 17° (NNE) 2,502 10.3 -11.7°
Reaches altitude 10° 16:21:10 10° 21° (NNE) 1,617 9.4 -11.5°
Maximum altitude 16:24:36 60° 103° (ESE) 529 7.1 -11.0°
Drops below altitude 10° 16:27:59 10° 184° (S) 1,594 9.2 -10.6°
Sets 16:30:01 0° 188° (S) 2,463 10.2 -10.4°
